User: anonymous   Login
Location: Bacea
(45.9500°N, 22.6667°E)
Time: 08:42:32
(UTC+00:00)
Language:

CZ-4B R/B - Orbit

View from above orbital plane
View from above orbital plane
View from above satellite
View from above satellite

Ground track
Ground track

The orbit data is extracted from the following two-line orbital elements,

1 27432U 02024C   22019.53187243  .00000004  00000-0  26050-4 0  9994
2 27432  99.0749  42.4298 0050015 338.1619 134.5863 14.14122755 15850
Epoch (UTC): 19 January 2022 12:45:53
Eccentricity: 0.0050015
inclination: 99.0749°
perigee height: 809 km
apogee height: 881 km
right ascension of ascending node: 42.4298°
argument of perigee: 338.1619°
revolutions per day: 14.14122755
mean anomaly at epoch: 134.5863°
orbit number at epoch: 1585

The dashed part of the orbit path shows where the satellite is in the earth's shadow,  

DLR